SCP
0 0 0 0 0 0 0 0 0 0 0 0 0 0 0 0 0 0 0 0 0 0
0 0 0 0 0 0 0 0 0 0 0 0 0 0 0 0 0 0 0 0 0 0
0 0 0 0 0 0 0 0 0 0 0 0 0 0 0 0 0 0 0 0 0 0
0 0 0 0 0 0 0 0 0 0 0 0 0 0 0 0 0 0 0 0 0 0
0 0 0 0 0 0 0 0 0 0 0 0 0 0 0 0 0 0 0 0 0 0
0 0 0 0 0 0 0 0 0 0 0 0 0 0 0 0 0 0 0 0 0 0
0 0 0 0 0 0 0 0 0 0 0 0 0 0 0 0 0 0 0 0 0 0
0 0 0 0 0 0 0 0 0 0 0 0 0 0 0 0 0 0 0 0 0 0
0 0 0 0 0 0 0 0 0 0 0 0 0 0 0 0 0 0 0 0 0 0
0 0 0 0 0 0 0 0 0 0 0 0 0 0 0 0 0 0 0 0 0 0
0 0 0 0 0 0 0 0 0 0 0 0 0 0 0 0 0 0 0 0 0 0
0 0 0 0 0 0 0 0 0 0 0 0 0 0 0 0 0 0 0 0 0 0
0 0 0 0 0 0 0 0 0 0 0 0 0 0 0 0 0 0 0 0 0 0
0 0 0 0 0 0 0 0 0 0 0 0 0 0 0 0 0 0 0 0 0 0
Wind_Speed_500mb
61 55 63 63 51 51 50 48 47 42 33 28 24 17 19 21 22 24 26 30 30 32
65 65 61 56 49 42 29 17 13 7 11 10 10 17 15 19 23 28 38 52 46 43
58 60 59 56 44 34 18 4 4 28 25 31 38 41 40 40 38 30 22 20 22 25
56 59 58 44 26 13 11 12 22 32 29 30 33 29 24 21 21 19 21 23 25 26
65 56 27 18 29 19 12 22 19 20 15 18 24 22 18 18 18 18 18 22 24 27
60 38 37 41 31 29 28 27 26 19 21 23 20 16 15 16 16 18 20 27 32 36
51 45 41 33 27 22 24 25 25 23 22 20 18 14 11 14 19 23 26 30 34 36
47 40 34 35 35 29 30 26 21 20 17 15 11 10 13 17 22 25 26 28 32 34
48 43 41 37 34 26 20 21 20 17 10 9 13 15 19 22 24 26 26 28 31 35
47 42 36 29 29 26 22 17 11 8 8 11 13 15 17 20 22 25 27 28 31 35
43 40 34 29 24 21 14 10 6 6 9 9 10 14 17 21 23 26 28 32 34 36
34 32 29 27 19 14 11 8 7 6 4 6 10 16 19 23 26 28 31 33 35 37
31 27 24 19 15 13 10 9 6 3 6 11 14 17 21 25 27 29 30 34 35 36
28 23 19 14 11 11 11 8 5 3 5 7 12 17 20 23 27 28 30 33 36 40
Wind_Direction_500mb
220 213 215 224 223 220 226 227 240 238 240 232 226 230 249 258 265 272 274 274 285 291
215 217 216 227 226 210 181 135 88 47 48 342 327 315 318 303 300 293 292 288 281 281
216 210 211 210 176 147 147 165 186 266 260 292 296 309 305 302 287 273 262 265 273 280
203 199 184 170 160 126 214 222 243 244 245 253 262 261 254 240 252 270 281 285 283 288
178 170 174 165 170 147 173 212 232 252 240 234 228 221 230 246 251 258 274 292 302 308
179 186 182 178 176 169 172 188 201 206 207 204 214 219 238 255 276 287 296 301 306 308
178 174 182 164 168 182 171 182 180 185 204 211 217 235 255 281 291 298 304 306 305 304
162 161 158 159 159 170 174 169 185 189 208 230 247 272 297 300 303 303 305 305 306 309
155 148 153 158 158 156 173 182 193 198 221 271 285 300 303 307 310 312 316 316 314 312
151 155 162 171 178 177 188 188 196 236 265 278 291 305 312 314 317 319 322 321 320 320
155 156 161 161 172 175 184 191 219 271 280 287 313 328 334 341 341 336 333 330 327 324
153 157 158 168 173 175 195 208 230 240 272 348 2 0 357 349 342 336 332 328 324 324
161 161 163 173 183 197 203 191 151 97 29 12 2 353 347 341 335 336 331 327 322 321
172 174 176 177 187 184 176 159 131 76 14 351 338 333 332 329 329 331 330 326 328 328
Wind_Speed_850mb
61 55 63 63 51 51 50 48 47 42 33 28 24 17 19 21 22 24 26 30 30 32
65 65 61 56 49 42 29 17 13 7 11 10 10 17 15 19 23 28 38 52 46 43
58 60 59 56 44 34 18 4 4 28 25 31 38 41 40 40 38 30 22 20 22 25
56 59 58 44 26 13 11 12 22 32 29 30 33 29 24 21 21 19 21 23 25 26
65 56 27 18 29 19 12 22 19 20 15 18 24 22 18 18 18 18 18 22 24 27
60 38 37 41 31 29 28 27 26 19 21 23 20 16 15 16 16 18 20 27 32 36
51 45 41 33 27 22 24 25 25 23 22 20 18 14 11 14 19 23 26 30 34 36
47 40 34 35 35 29 30 26 21 20 17 15 11 10 13 17 22 25 26 28 32 34
48 43 41 37 34 26 20 21 20 17 10 9 13 15 19 22 24 26 26 28 31 35
47 42 36 29 29 26 22 17 11 8 8 11 13 15 17 20 22 25 27 28 31 35
43 40 34 29 24 21 14 10 6 6 9 9 10 14 17 21 23 26 28 32 34 36
34 32 29 27 19 14 11 8 7 6 4 6 10 16 19 23 26 28 31 33 35 37
31 27 24 19 15 13 10 9 6 3 6 11 14 17 21 25 27 29 30 34 35 36
28 23 19 14 11 11 11 8 5 3 5 7 12 17 20 23 27 28 30 33 36 40
Wind_Direction_850mb
220 213 215 224 223 220 226 227 240 238 240 232 226 230 249 258 265 272 274 274 285 291
215 217 216 227 226 210 181 135 88 47 48 342 327 315 318 303 300 293 292 288 281 281
216 210 211 210 176 147 147 165 186 266 260 292 296 309 305 302 287 273 262 265 273 280
203 199 184 170 160 126 214 222 243 244 245 253 262 261 254 240 252 270 281 285 283 288
178 170 174 165 170 147 173 212 232 252 240 234 228 221 230 246 251 258 274 292 302 308
179 186 182 178 176 169 172 188 201 206 207 204 214 219 238 255 276 287 296 301 306 308
178 174 182 164 168 182 171 182 180 185 204 211 217 235 255 281 291 298 304 306 305 304
162 161 158 159 159 170 174 169 185 189 208 230 247 272 297 300 303 303 305 305 306 309
155 148 153 158 158 156 173 182 193 198 221 271 285 300 303 307 310 312 316 316 314 312
151 155 162 171 178 177 188 188 196 236 265 278 291 305 312 314 317 319 322 321 320 320
155 156 161 161 172 175 184 191 219 271 280 287 313 328 334 341 341 336 333 330 327 324
153 157 158 168 173 175 195 208 230 240 272 348 2 0 357 349 342 336 332 328 324 324
161 161 163 173 183 197 203 191 151 97 29 12 2 353 347 341 335 336 331 327 322 321
172 174 176 177 187 184 176 159 131 76 14 351 338 333 332 329 329 331 330 326 328 328